Regional Weather Roundup
Issued by NWS Glasgow, MT

Home | Current Version | Previous Version | Text Only | Print | Product List | Glossary On
Versions: 1 2 3 4 5 6 7 8 9 10 11 12 13 14 15 16 17 18 19 20 21 22 23 24 25 26 27
000
ASUS45 KGGW 281215
RWRGGW
HOURLY REGIONAL WEATHER ROUNDUP FOR NORTHEAST MONTANA
NATIONAL WEATHER SERVICE GLASGOW MONTANA
600 AM MDT TUE MAR 28 2017

NOTE: "FAIR" INDICATES FEW OR NO CLOUDS BELOW 12,000 FEET WITH NO
SIGNIFICANT WEATHER AND/OR OBSTRUCTIONS TO VISISBILITY.

NORTHEAST MONTANA


CITY           SKY/WX    TMP DP  RH WIND       PRES   REMARKS
GLASGOW        CLOUDY    33  31  92 NW6       30.03R
6HR MIN TEMP:  32; 6HR MAX TEMP:  38;

PLENTYWOOD       N/A     35  34  96 E7          N/A
WOLF POINT     FOG       36  35  96 E9        30.04R VSB 3/4
JORDAN           N/A     36  32  85 CALM      30.01R
WINNETT          N/A     45  34  65 W12G22      N/A
SIDNEY         NOT AVBL
GLENDIVE       CLOUDY    34  33  96 N5        30.00R
MALTA            N/A     33  33 100 SW2         N/A
SCOBEY           N/A     34  27  76 CALM      30.01  HAZE

FORT PECK REPORTS


CITY           SKY/WX    TMP DP  RH WIND       PRES   REMARKS
FORT PECK        N/A     33  33 100 E12         N/A
THE PINES        N/A     34  32  92 CALM        N/A

SOUTHEAST MONTANA


CITY           SKY/WX    TMP DP  RH WIND       PRES   REMARKS
BILLINGS       LGT RAIN  40  38  93 NW6       30.07R
MILES CITY     CLOUDY    40  36  86 NW8       29.99R
BAKER          CLOUDY    39  32  76 SE8       29.99R
LIVINGSTON     CLOUDY    35  27  72 W7        30.13R

CENTRAL MONTANA


CITY           SKY/WX    TMP DP  RH WIND       PRES   REMARKS
HAVRE          PTCLDY    35  28  75 SW13      30.05S
LEWISTOWN      CLOUDY    38  30  73 NW8       30.09R
GREAT FALLS    CLEAR     30  23  75 S12       30.08S
CUT BANK       CLEAR     34  24  67 W20       30.03R
HELENA         CLEAR     39  25  57 SW9       30.14S
BUTTE          PTCLDY    28  23  81 CALM      30.16R
BOZEMAN        CLOUDY    34  26  72 W7        30.17R

WESTERN MONTANA


CITY           SKY/WX    TMP DP  RH WIND       PRES   REMARKS
MISSOULA       CLOUDY    33  32  96 W3        30.22R
KALISPELL      NOT AVBL

NORTH DAKOTA


CITY           SKY/WX    TMP DP  RH WIND       PRES   REMARKS
WILLISTON      CLOUDY    37  35  92 E8        30.04R
DICKINSON      CLOUDY    29  28  96 E5        30.00R
MINOT          FOG       34  33  96 E10       30.10R VSB 1
BISMARCK       CLOUDY    34  31  88 E10       30.07R

SOUTHERN SASKATCHEWAN


CITY           SKY/WX    TMP DP  RH WIND       PRES   REMARKS
REGINA         MOCLDY    32  30  93 E8        30.09R
MOOSE JAW      CLOUDY    32  30  93 SE6       30.08R
ESTEVAN        CLOUDY    32  32 100 E10       30.09R FOG
SWIFT CURRENT  CLOUDY    36  34  93 S9        29.98S





USA.gov is the U.S. government's official web portal to all federal, state and local government web resources and services.